| time (UTC) | temp F | wind direction | speed knots | gust knots | rain 1hr in | rain 24hr in | rain mn in | humidity % | barometer mb |
| 20260509162703 | 87 | 105 | 0.9 | 0.9 | 0.00 | 0.00 | 0.00 | 18 | 1012.7 |
| 20260509162159 | 86 | 225 | 0.9 | 0.9 | 0.00 | 0.00 | 0.00 | 18 | 1012.7 |
| 20260509161654 | 87 | 184 | 0.9 | 0.9 | 0.00 | 0.00 | 0.00 | 18 | 1012.7 |
| 20260509161150 | 86 | 226 | 0.0 | 0.0 | 0.00 | 0.00 | 0.00 | 19 | 1012.7 |
| 20260509160646 | 86 | 185 | 0.9 | 1.7 | 0.00 | 0.00 | 0.00 | 19 | 1012.7 |
| 20260509160141 | 85 | 264 | 1.7 | 1.7 | 0.00 | 0.00 | 0.00 | 20 | 1012.9 |
| 20260509155638 | 84 | 77 | 0.0 | 0.0 | 0.00 | 0.00 | 0.00 | 20 | 1012.7 |
| 20260509155134 | 83 | 129 | 1.7 | 1.7 | 0.00 | 0.00 | 0.00 | 20 | 1012.9 |
| 20260509154630 | 83 | 200 | 0.9 | 1.7 | 0.00 | 0.00 | 0.00 | 20 | 1012.8 |
| 20260509154127 | 83 | 244 | 1.7 | 1.7 | 0.00 | 0.00 | 0.00 | 20 | 1012.8 |
| 20260509153624 | 83 | 137 | 0.0 | 0.0 | 0.00 | 0.00 | 0.00 | 20 | 1012.9 |
| 20260509153121 | 83 | 178 | 0.9 | 0.9 | 0.00 | 0.00 | 0.00 | 20 | 1013.0 |
| 20260509152617 | 83 | 113 | 0.9 | 0.9 | 0.00 | 0.00 | 0.00 | 20 | 1012.8 |
| 20260509152114 | 82 | 105 | 0.0 | 0.0 | 0.00 | 0.00 | 0.00 | 24 | 1013.0 |
| 20260509151610 | 82 | 102 | 0.9 | 0.9 | 0.00 | 0.00 | 0.00 | 26 | 1012.9 |
| 20260509151109 | 81 | 74 | 0.0 | 0.0 | 0.00 | 0.00 | 0.00 | 28 | 1012.8 |
| 20260509150606 | 79 | 74 | 0.0 | 0.0 | 0.00 | 0.00 | 0.00 | 29 | 1012.9 |
| 20260509150104 | 78 | 71 | 0.0 | 0.9 | 0.00 | 0.00 | 0.00 | 30 | 1013.0 |
| 20260509145559 | 77 | 84 | 0.0 | 0.9 | 0.00 | 0.00 | 0.00 | 30 | 1013.0 |
| 20260509145055 | 76 | 73 | 0.0 | 0.0 | 0.00 | 0.00 | 0.00 | 31 | 1012.9 |
| 20260509144552 | 77 | 68 | 0.0 | 0.9 | 0.00 | 0.00 | 0.00 | 32 | 1012.9 |
| 20260509144049 | 76 | 78 | 0.0 | 0.9 | 0.00 | 0.00 | 0.00 | 32 | 1013.0 |
| 20260509143546 | 74 | 81 | 0.0 | 0.0 | 0.00 | 0.00 | 0.00 | 33 | 1012.9 |
| 20260509143044 | 73 | 82 | 0.9 | 0.9 | 0.00 | 0.00 | 0.00 | 34 | 1012.9 |
| 20260509142539 | 73 | 80 | 0.0 | 0.0 | 0.00 | 0.00 | 0.00 | 35 | 1013.0 |
| 20260509142035 | 73 | 63 | 0.9 | 0.9 | 0.00 | 0.00 | 0.00 | 34 | 1012.8 |
| 20260509141531 | 73 | 78 | 0.9 | 0.9 | 0.00 | 0.00 | 0.00 | 33 | 1012.8 |
| 20260509141028 | 71 | 38 | 0.0 | 0.0 | 0.00 | 0.00 | 0.00 | 35 | 1012.8 |
| 20260509140525 | 71 | 132 | 0.9 | 0.9 | 0.00 | 0.00 | 0.00 | 35 | 1012.7 |
| 20260509140023 | 70 | 85 | 0.0 | 0.0 | 0.00 | 0.00 | 0.00 | 37 | 1012.8 |
| 20260509135520 | 69 | 82 | 1.7 | 1.7 | 0.00 | 0.00 | 0.00 | 35 | 1012.7 |
| 20260509135017 | 69 | 88 | 0.0 | 0.0 | 0.00 | 0.00 | 0.00 | 36 | 1012.8 |
| 20260509134514 | 68 | 74 | 0.0 | 0.0 | 0.00 | 0.00 | 0.00 | 37 | 1012.6 |
| 20260509134012 | 66 | 72 | 0.9 | 0.9 | 0.00 | 0.00 | 0.00 | 38 | 1012.5 |
| 20260509133508 | 66 | 74 | 0.9 | 0.9 | 0.00 | 0.00 | 0.00 | 38 | 1012.5 |
| 20260509133007 | 65 | 68 | 1.7 | 1.7 | 0.00 | 0.00 | 0.00 | 39 | 1012.1 |
| 20260509132505 | 65 | 81 | 1.7 | 1.7 | 0.00 | 0.00 | 0.00 | 39 | 1012.5 |
| 20260509132002 | 64 | 79 | 0.9 | 1.7 | 0.00 | 0.00 | 0.00 | 40 | 1012.4 |
| 20260509131458 | 64 | 87 | 0.9 | 0.9 | 0.00 | 0.00 | 0.00 | 39 | 1012.2 |
| 20260509130955 | 63 | 94 | 0.0 | 0.0 | 0.00 | 0.00 | 0.00 | 41 | 1012.2 |
| 20260509130450 | 61 | 112 | 0.0 | 0.0 | 0.00 | 0.00 | 0.00 | 42 | 1012.2 |
| 20260509125948 | 60 | 116 | 0.9 | 0.9 | 0.00 | 0.00 | 0.00 | 45 | 1012.4 |
| 20260509125444 | 60 | 344 | 0.0 | 0.0 | 0.00 | 0.00 | 0.00 | 48 | 1012.2 |
| 20260509124940 | 59 | 95 | 0.0 | 0.9 | 0.00 | 0.00 | 0.00 | 48 | 1011.8 |
| 20260509124438 | 59 | 80 | 0.0 | 0.0 | 0.00 | 0.00 | 0.00 | 50 | 1012.2 |
| 20260509123935 | 59 | 79 | 0.9 | 0.9 | 0.00 | 0.00 | 0.00 | 49 | 1011.9 |
| 20260509123432 | 60 | 51 | 0.9 | 0.9 | 0.00 | 0.00 | 0.00 | 49 | 1011.9 |
| 20260509122928 | 60 | 96 | 0.0 | 0.0 | 0.00 | 0.00 | 0.00 | 48 | 1011.8 |
| 20260509122425 | 60 | 96 | 0.0 | 0.0 | 0.00 | 0.00 | 0.00 | 47 | 1012.0 |
| 20260509121921 | 60 | 97 | 0.0 | 0.0 | 0.00 | 0.00 | 0.00 | 46 | 1011.7 |
| 20260509121419 | 60 | 96 | 0.0 | 0.0 | 0.00 | 0.00 | 0.00 | 46 | 1011.7 |
| 20260509120917 | 60 | 101 | 0.0 | 0.0 | 0.00 | 0.00 | 0.00 | 44 | 1011.5 |
| 20260509120414 | 60 | 101 | 0.0 | 0.9 | 0.00 | 0.00 | 0.00 | 45 | 1011.5 |
| 20260509115912 | 60 | 101 | 0.0 | 0.0 | 0.00 | 0.00 | 0.00 | 46 | 1011.5 |
| 20260509115409 | 60 | 101 | 0.0 | 0.0 | 0.00 | 0.00 | 0.00 | 46 | 1011.6 |
| 20260509114907 | 60 | 84 | 0.0 | 0.0 | 0.00 | 0.00 | 0.00 | 47 | 1011.6 |
| 20260509114405 | 61 | 84 | 0.0 | 0.0 | 0.00 | 0.00 | 0.00 | 46 | 1011.6 |
| 20260509113904 | 61 | 84 | 0.0 | 0.0 | 0.00 | 0.00 | 0.00 | 45 | 1011.5 |
| 20260509113401 | 61 | 84 | 0.0 | 0.0 | 0.00 | 0.00 | 0.00 | 44 | 1011.3 |
| 20260509112857 | 61 | 84 | 0.0 | 0.0 | 0.00 | 0.00 | 0.00 | 44 | 1011.6 |
| 20260509112354 | 61 | 84 | 0.0 | 0.0 | 0.00 | 0.00 | 0.00 | 44 | 1011.7 |
| 20260509111852 | 61 | 84 | 0.0 | 0.0 | 0.00 | 0.00 | 0.00 | 43 | 1011.5 |
| 20260509111348 | 62 | 84 | 0.0 | 0.0 | 0.00 | 0.00 | 0.00 | 43 | 1011.4 |
| 20260509110847 | 62 | 84 | 0.0 | 0.0 | 0.00 | 0.00 | 0.00 | 42 | 1011.2 |
| 20260509110342 | 62 | 84 | 0.0 | 0.0 | 0.00 | 0.00 | 0.00 | 41 | 1011.4 |
| 20260509105841 | 62 | 84 | 0.0 | 0.0 | 0.00 | 0.00 | 0.00 | 42 | 1011.4 |
| 20260509105339 | 62 | 84 | 0.0 | 0.0 | 0.00 | 0.00 | 0.00 | 42 | 1011.5 |
| 20260509104835 | 63 | 84 | 0.0 | 0.0 | 0.00 | 0.00 | 0.00 | 41 | 1011.5 |
| 20260509104331 | 63 | 84 | 0.0 | 0.0 | 0.00 | 0.00 | 0.00 | 41 | 1011.6 |
| 20260509103829 | 63 | 85 | 0.0 | 0.0 | 0.00 | 0.00 | 0.00 | 40 | 1011.4 |
| 20260509103326 | 63 | 85 | 0.0 | 0.0 | 0.00 | 0.00 | 0.00 | 39 | 1011.5 |
| 20260509102825 | 63 | 85 | 0.0 | 0.0 | 0.00 | 0.00 | 0.00 | 39 | 1011.3 |
| 20260509102322 | 63 | 85 | 0.0 | 0.0 | 0.00 | 0.00 | 0.00 | 38 | 1011.4 |
| 20260509101818 | 64 | 85 | 0.0 | 0.0 | 0.00 | 0.00 | 0.00 | 37 | 1011.4 |
| 20260509101314 | 64 | 85 | 0.0 | 0.0 | 0.00 | 0.00 | 0.00 | 36 | 1011.3 |
| 20260509100812 | 65 | 85 | 0.0 | 0.0 | 0.00 | 0.00 | 0.00 | 36 | 1011.6 |
| 20260509100309 | 65 | 85 | 0.0 | 0.0 | 0.00 | 0.00 | 0.00 | 35 | 1011.5 |
| 20260509095806 | 66 | 85 | 0.9 | 0.9 | 0.00 | 0.00 | 0.00 | 34 | 1011.4 |
| 20260509095305 | 65 | 84 | 0.0 | 0.0 | 0.00 | 0.00 | 0.00 | 34 | 1011.7 |
| 20260509094800 | 65 | 96 | 0.0 | 0.9 | 0.00 | 0.00 | 0.00 | 35 | 1011.3 |
| 20260509094256 | 64 | 84 | 0.0 | 0.9 | 0.00 | 0.00 | 0.00 | 36 | 1011.4 |
| 20260509093754 | 64 | 111 | 0.0 | 0.0 | 0.00 | 0.00 | 0.00 | 38 | 1011.3 |
| 20260509093251 | 65 | 110 | 0.0 | 0.0 | 0.00 | 0.00 | 0.00 | 37 | 1011.5 |
| 20260509092750 | 65 | 111 | 0.0 | 0.0 | 0.00 | 0.00 | 0.00 | 37 | 1011.4 |
| 20260509092247 | 65 | 111 | 0.0 | 0.0 | 0.00 | 0.00 | 0.00 | 38 | 1011.2 |
| 20260509091745 | 65 | 111 | 0.0 | 0.0 | 0.00 | 0.00 | 0.00 | 37 | 1011.5 |
| 20260509091241 | 64 | 77 | 0.9 | 0.9 | 0.00 | 0.00 | 0.00 | 40 | 1011.5 |
| 20260509090739 | 65 | 77 | 0.0 | 0.0 | 0.00 | 0.00 | 0.00 | 39 | 1011.3 |
| 20260509090236 | 65 | 77 | 0.0 | 0.0 | 0.00 | 0.00 | 0.00 | 39 | 1011.2 |
| 20260509085734 | 66 | 77 | 0.0 | 0.0 | 0.00 | 0.00 | 0.00 | 38 | 1011.4 |
| 20260509085231 | 66 | 77 | 0.0 | 0.0 | 0.00 | 0.00 | 0.00 | 37 | 1011.5 |
| 20260509084727 | 67 | 77 | 0.9 | 0.9 | 0.00 | 0.00 | 0.00 | 36 | 1011.6 |
| 20260509084224 | 67 | 76 | 0.0 | 0.0 | 0.00 | 0.00 | 0.00 | 35 | 1011.4 |
| 20260509083722 | 67 | 74 | 0.0 | 0.0 | 0.00 | 0.00 | 0.00 | 34 | 1011.2 |
| 20260509083218 | 68 | 71 | 0.0 | 0.0 | 0.00 | 0.00 | 0.00 | 33 | 1011.4 |
| 20260509082715 | 68 | 71 | 0.0 | 0.0 | 0.00 | 0.00 | 0.00 | 33 | 1011.3 |
| 20260509082212 | 68 | 91 | 0.9 | 0.9 | 0.00 | 0.00 | 0.00 | 33 | 1011.3 |
| 20260509081709 | 68 | 106 | 1.7 | 1.7 | 0.00 | 0.00 | 0.00 | 32 | 1011.1 |
| 20260509081206 | 68 | 112 | 0.0 | 0.0 | 0.00 | 0.00 | 0.00 | 33 | 1011.4 |
| 20260509080704 | 68 | 111 | 0.9 | 0.9 | 0.00 | 0.00 | 0.00 | 33 | 1011.4 |
| 20260509080202 | 68 | 99 | 0.9 | 0.9 | 0.00 | 0.00 | 0.00 | 33 | 1011.2 |
| 20260509075700 | 68 | 107 | 1.7 | 1.7 | 0.00 | 0.00 | 0.00 | 35 | 1011.5 |
| 20260509075157 | 68 | 104 | 0.0 | 0.0 | 0.00 | 0.00 | 0.00 | 34 | 1011.3 |
| 20260509074654 | 68 | 83 | 0.9 | 1.7 | 0.00 | 0.00 | 0.00 | 35 | 1011.5 |
| 20260509074150 | 67 | 81 | 0.9 | 0.9 | 0.00 | 0.00 | 0.00 | 35 | 1011.5 |
| 20260509073647 | 67 | 102 | 0.0 | 0.0 | 0.00 | 0.00 | 0.00 | 37 | 1011.4 |
| 20260509073144 | 67 | 102 | 0.0 | 0.0 | 0.00 | 0.00 | 0.00 | 37 | 1011.3 |
| 20260509072641 | 68 | 106 | 0.0 | 0.0 | 0.00 | 0.00 | 0.00 | 35 | 1011.4 |
| 20260509072137 | 68 | 106 | 0.0 | 0.0 | 0.00 | 0.00 | 0.00 | 34 | 1011.3 |
| 20260509071634 | 68 | 106 | 0.0 | 0.0 | 0.00 | 0.00 | 0.00 | 35 | 1011.4 |
| 20260509071131 | 68 | 107 | 0.0 | 0.0 | 0.00 | 0.00 | 0.00 | 35 | 1011.3 |
| 20260509070628 | 69 | 107 | 0.0 | 0.0 | 0.00 | 0.00 | 0.00 | 35 | 1011.3 |
| 20260509070124 | 69 | 107 | 0.0 | 0.0 | 0.00 | 0.00 | 0.00 | 33 | 1011.3 |
| 20260509065620 | 69 | 113 | 0.0 | 0.0 | 0.00 | 0.00 | 0.00 | 34 | 1011.3 |
| 20260509065116 | 69 | 113 | 0.0 | 0.0 | 0.00 | 0.00 | 0.00 | 33 | 1011.3 |
| 20260509064614 | 69 | 114 | 0.0 | 0.0 | 0.00 | 0.00 | 0.00 | 34 | 1011.3 |
| 20260509064112 | 69 | 110 | 0.0 | 0.0 | 0.00 | 0.00 | 0.00 | 33 | 1011.4 |
| 20260509063608 | 69 | 110 | 0.9 | 0.9 | 0.00 | 0.00 | 0.00 | 32 | 1011.1 |
| 20260509063105 | 69 | 110 | 0.0 | 0.0 | 0.00 | 0.00 | 0.00 | 32 | 1011.2 |
| 20260509062602 | 70 | 110 | 0.0 | 0.0 | 0.00 | 0.00 | 0.00 | 32 | 1011.2 |
| 20260509062059 | 70 | 110 | 0.0 | 0.0 | 0.00 | 0.00 | 0.00 | 31 | 1011.0 |
| 20260509061556 | 70 | 110 | 0.0 | 0.0 | 0.00 | 0.00 | 0.00 | 32 | 1011.0 |
| 20260509061053 | 71 | 110 | 0.0 | 0.0 | 0.00 | 0.00 | 0.00 | 31 | 1011.1 |
| 20260509060551 | 71 | 110 | 0.0 | 0.0 | 0.00 | 0.00 | 0.00 | 31 | 1011.0 |
| 20260509060046 | 71 | 110 | 0.0 | 0.0 | 0.00 | 0.00 | 0.00 | 30 | 1011.1 |
| 20260509055542 | 72 | 111 | 0.0 | 0.0 | 0.00 | 0.00 | 0.00 | 30 | 1010.9 |
| 20260509055038 | 72 | 111 | 0.0 | 0.0 | 0.00 | 0.00 | 0.00 | 29 | 1011.0 |
| 20260509054535 | 73 | 111 | 0.0 | 0.0 | 0.00 | 0.00 | 0.00 | 28 | 1011.0 |
| 20260509054033 | 73 | 111 | 0.0 | 0.0 | 0.00 | 0.00 | 0.00 | 27 | 1011.0 |
| 20260509053531 | 73 | 112 | 1.7 | 1.7 | 0.00 | 0.00 | 0.00 | 28 | 1011.0 |
| 20260509053028 | 73 | 255 | 0.0 | 0.0 | 0.00 | 0.00 | 0.00 | 27 | 1011.1 |
| 20260509052525 | 73 | 255 | 0.0 | 0.0 | 0.00 | 0.00 | 0.00 | 27 | 1010.7 |
| 20260509052023 | 74 | 256 | 0.0 | 0.0 | 0.00 | 0.00 | 0.00 | 27 | 1010.9 |
| 20260509051521 | 74 | 256 | 0.0 | 0.9 | 0.00 | 0.00 | 0.00 | 26 | 1010.9 |
| 20260509051018 | 75 | 256 | 0.0 | 0.0 | 0.00 | 0.00 | 0.00 | 26 | 1010.9 |
| 20260509050515 | 75 | 256 | 0.0 | 0.9 | 0.00 | 0.00 | 0.00 | 27 | 1010.9 |
| 20260509050011 | 75 | 256 | 0.9 | 0.9 | 0.00 | 0.00 | 0.00 | 25 | 1010.6 |
| 20260509045508 | 75 | 256 | 0.0 | 0.0 | 0.00 | 0.00 | 0.00 | 25 | 1010.9 |
| 20260509045006 | 76 | 256 | 0.0 | 0.0 | 0.00 | 0.00 | 0.00 | 24 | 1010.7 |
| 20260509044504 | 76 | 256 | 0.0 | 0.0 | 0.00 | 0.00 | 0.00 | 23 | 1010.5 |
| 20260509044000 | 77 | 256 | 0.0 | 0.0 | 0.00 | 0.00 | 0.00 | 23 | 1010.7 |
| 20260509043456 | 77 | 256 | 0.9 | 0.0 | 0.00 | 0.00 | 0.00 | 22 | 1010.7 |
| 20260509042951 | 77 | 256 | 0.0 | 0.0 | 0.00 | 0.00 | 0.00 | 22 | 1010.3 |
| 20260509042449 | 77 | 256 | 0.0 | 0.0 | 0.00 | 0.00 | 0.00 | 22 | 1010.4 |
| 20260509041944 | 77 | 256 | 0.0 | 0.0 | 0.00 | 0.00 | 0.00 | 21 | 1010.2 |
| 20260509041442 | 77 | 256 | 0.0 | 0.0 | 0.00 | 0.00 | 0.00 | 21 | 1010.4 |
| 20260509040940 | 78 | 256 | 0.0 | 0.9 | 0.00 | 0.00 | 0.00 | 20 | 1010.3 |
| 20260509040438 | 79 | 256 | 0.0 | 0.0 | 0.00 | 0.00 | 0.00 | 20 | 1010.3 |
| 20260509035934 | 79 | 256 | 0.0 | 0.0 | 0.00 | 0.00 | 0.00 | 19 | 1010.4 |
| 20260509035431 | 80 | 256 | 0.0 | 0.0 | 0.00 | 0.00 | 0.00 | 19 | 1010.2 |
| 20260509034927 | 80 | 256 | 0.0 | 0.0 | 0.00 | 0.00 | 0.00 | 18 | 1010.2 |
| 20260509034425 | 80 | 256 | 0.0 | 0.0 | 0.00 | 0.00 | 0.00 | 18 | 1010.0 |
| 20260509033922 | 80 | 255 | 0.0 | 0.0 | 0.00 | 0.00 | 0.00 | 17 | 1009.9 |
| 20260509033419 | 81 | 256 | 0.0 | 0.0 | 0.00 | 0.00 | 0.00 | 17 | 1009.9 |
| 20260509032915 | 81 | 255 | 0.0 | 0.0 | 0.00 | 0.00 | 0.00 | 17 | 1009.8 |
| 20260509032413 | 82 | 254 | 0.0 | 0.0 | 0.00 | 0.00 | 0.00 | 17 | 1009.8 |
| 20260509031911 | 82 | 254 | 0.0 | 0.0 | 0.00 | 0.00 | 0.00 | 17 | 1010.1 |
| 20260509031408 | 82 | 253 | 0.0 | 0.0 | 0.00 | 0.00 | 0.00 | 16 | 1009.8 |
| 20260509030905 | 82 | 245 | 0.0 | 0.0 | 0.00 | 0.00 | 0.00 | 16 | 1010.0 |
| 20260509030404 | 83 | 320 | 0.0 | 0.0 | 0.00 | 0.00 | 0.00 | 16 | 1009.6 |
| 20260509025900 | 83 | 322 | 0.0 | 0.0 | 0.00 | 0.00 | 0.00 | 16 | 1009.5 |
| 20260509025355 | 84 | 325 | 0.0 | 0.0 | 0.00 | 0.00 | 0.00 | 15 | 1009.6 |
| 20260509024851 | 84 | 328 | 0.0 | 0.0 | 0.00 | 0.00 | 0.00 | 15 | 1009.5 |
| 20260509024347 | 85 | 332 | 0.9 | 1.7 | 0.00 | 0.00 | 0.00 | 15 | 1009.5 |
| 20260509023845 | 86 | 314 | 0.9 | 0.9 | 0.00 | 0.00 | 0.00 | 14 | 1009.3 |
| 20260509023342 | 86 | 328 | 0.9 | 0.9 | 0.00 | 0.00 | 0.00 | 14 | 1009.1 |
| 20260509022838 | 86 | 313 | 0.0 | 0.9 | 0.00 | 0.00 | 0.00 | 14 | 1009.1 |
| 20260509022336 | 86 | 294 | 0.9 | 0.9 | 0.00 | 0.00 | 0.00 | 14 | 1009.1 |
| 20260509021832 | 87 | 331 | 0.9 | 0.9 | 0.00 | 0.00 | 0.00 | 14 | 1009.2 |
| 20260509021329 | 88 | 303 | 1.7 | 2.6 | 0.00 | 0.00 | 0.00 | 13 | 1009.2 |
| 20260509020827 | 88 | 306 | 0.9 | 0.9 | 0.00 | 0.00 | 0.00 | 13 | 1009.1 |
| 20260509020325 | 88 | 312 | 2.6 | 2.6 | 0.00 | 0.00 | 0.00 | 13 | 1009.0 |
| 20260509015822 | 89 | 320 | 2.6 | 2.6 | 0.00 | 0.00 | 0.00 | 13 | 1009.0 |
| 20260509015320 | 89 | 105 | 1.7 | 1.7 | 0.00 | 0.00 | 0.00 | 12 | 1008.9 |
| 20260509014817 | 90 | 311 | 4.3 | 6.1 | 0.00 | 0.00 | 0.00 | 12 | 1008.8 |
| 20260509014314 | 91 | 339 | 0.9 | 0.9 | 0.00 | 0.00 | 0.00 | 12 | 1008.8 |
| 20260509013811 | 91 | 312 | 0.9 | 1.7 | 0.00 | 0.00 | 0.00 | 12 | 1008.6 |
| 20260509013307 | 91 | 296 | 3.5 | 5.2 | 0.00 | 0.00 | 0.00 | 11 | 1008.8 |
| 20260509012803 | 91 | 3 | 1.7 | 1.7 | 0.00 | 0.00 | 0.00 | 12 | 1008.9 |
| 20260509012300 | 92 | 314 | 2.6 | 5.2 | 0.00 | 0.00 | 0.00 | 11 | 1008.6 |
| 20260509011757 | 92 | 311 | 1.7 | 2.6 | 0.00 | 0.00 | 0.00 | 11 | 1008.8 |
| 20260509011254 | 92 | 301 | 2.6 | 2.6 | 0.00 | 0.00 | 0.00 | 11 | 1008.6 |
| 20260509010752 | 93 | 311 | 2.6 | 2.6 | 0.00 | 0.00 | 0.00 | 11 | 1008.8 |
| 20260509010248 | 93 | 287 | 4.3 | 7.0 | 0.00 | 0.00 | 0.00 | 11 | 1008.8 |
| 20260509005746 | 93 | 343 | 0.9 | 0.9 | 0.00 | 0.00 | 0.00 | 12 | 1008.8 |
| 20260509005244 | 93 | 311 | 2.6 | 2.6 | 0.00 | 0.00 | 0.00 | 11 | 1009.0 |
| 20260509004743 | 93 | 29 | 0.9 | 1.7 | 0.00 | 0.00 | 0.00 | 11 | 1008.8 |
| 20260509004241 | 93 | 264 | 3.5 | 4.3 | 0.00 | 0.00 | 0.00 | 10 | 1009.0 |
| 20260509003739 | 93 | 295 | 4.3 | 5.2 | 0.00 | 0.00 | 0.00 | 10 | 1008.8 |
| 20260509003236 | 94 | 299 | 4.3 | 7.0 | 0.00 | 0.00 | 0.00 | 11 | 1008.8 |
| 20260509002733 | 94 | 272 | 3.5 | 5.2 | 0.00 | 0.00 | 0.00 | 11 | 1008.9 |
| 20260509002231 | 94 | 307 | 0.9 | 0.9 | 0.00 | 0.00 | 0.00 | 11 | 1008.8 |
| 20260509001729 | 94 | 0 | 0.9 | 0.9 | 0.00 | 0.00 | 0.00 | 11 | 1008.9 |
| 20260509001224 | 95 | 277 | 5.2 | 6.1 | 0.00 | 0.00 | 0.00 | 10 | 1008.8 |
| 20260509000722 | 95 | 322 | 2.6 | 2.6 | 0.00 | 0.00 | 0.00 | 10 | 1008.9 |
| 20260509000219 | 95 | 295 | 4.3 | 7.0 | 0.00 | 0.00 | 0.00 | 10 | 1008.9 |
| 20260508235716 | 95 | 277 | 4.3 | 7.0 | 0.00 | 0.00 | 0.00 | 10 | 1008.9 |
| 20260508235212 | 94 | 303 | 4.3 | 6.1 | 0.00 | 0.00 | 0.00 | 11 | 1008.8 |
| 20260508234710 | 95 | 307 | 4.3 | 5.2 | 0.00 | 0.00 | 0.00 | 10 | 1008.9 |
| 20260508234206 | 95 | 329 | 1.7 | 1.7 | 0.00 | 0.00 | 0.00 | 11 | 1009.0 |
| 20260508233706 | 95 | 336 | 0.9 | 1.7 | 0.00 | 0.00 | 0.00 | 11 | 1009.1 |
| 20260508233203 | 94 | 357 | 1.7 | 1.7 | 0.00 | 0.00 | 0.00 | 11 | 1008.9 |
| 20260508232700 | 94 | 292 | 3.5 | 4.3 | 0.00 | 0.00 | 0.00 | 11 | 1009.0 |
| 20260508232156 | 94 | 342 | 2.6 | 2.6 | 0.00 | 0.00 | 0.00 | 11 | 1009.1 |
| 20260508231655 | 95 | 353 | 5.2 | 8.7 | 0.00 | 0.00 | 0.00 | 11 | 1009.0 |
| 20260508231151 | 95 | 356 | 0.9 | 0.9 | 0.00 | 0.00 | 0.00 | 11 | 1009.1 |
| 20260508230648 | 94 | 298 | 3.5 | 5.2 | 0.00 | 0.00 | 0.00 | 11 | 1009.1 |
| 20260508230144 | 95 | 308 | 5.2 | 6.1 | 0.00 | 0.00 | 0.00 | 11 | 1009.5 |
| 20260508225643 | 95 | 317 | 1.7 | 1.7 | 0.00 | 0.00 | 0.00 | 11 | 1009.2 |
| 20260508225138 | 94 | 319 | 0.9 | 1.7 | 0.00 | 0.00 | 0.00 | 11 | 1009.5 |
| 20260508224636 | 95 | 302 | 5.2 | 7.0 | 0.00 | 0.00 | 0.00 | 11 | 1009.6 |
| 20260508224134 | 95 | 320 | 3.5 | 4.3 | 0.00 | 0.00 | 0.00 | 11 | 1009.5 |
| 20260508223631 | 94 | 328 | 2.6 | 4.3 | 0.00 | 0.00 | 0.00 | 12 | 1009.7 |
| 20260508223128 | 95 | 264 | 4.3 | 5.2 | 0.00 | 0.00 | 0.00 | 11 | 1009.5 |
| 20260508222626 | 95 | 237 | 4.3 | 7.8 | 0.00 | 0.00 | 0.00 | 12 | 1009.3 |
| 20260508222123 | 95 | 34 | 0.9 | 0.9 | 0.00 | 0.00 | 0.00 | 12 | 1009.7 |
| 20260508221619 | 95 | 352 | 7.0 | 9.6 | 0.00 | 0.00 | 0.00 | 12 | 1009.9 |
| 20260508221115 | 94 | 294 | 1.7 | 1.7 | 0.00 | 0.00 | 0.00 | 12 | 1009.7 |
| 20260508220611 | 95 | 303 | 4.3 | 6.1 | 0.00 | 0.00 | 0.00 | 12 | 1009.7 |
| 20260508220108 | 94 | 318 | 4.3 | 7.0 | 0.00 | 0.00 | 0.00 | 12 | 1009.9 |
| 20260508215605 | 94 | 348 | 2.6 | 4.3 | 0.00 | 0.00 | 0.00 | 12 | 1010.1 |
| 20260508215101 | 94 | 308 | 2.6 | 4.3 | 0.00 | 0.00 | 0.00 | 13 | 1010.0 |
| 20260508214559 | 95 | 322 | 3.5 | 8.7 | 0.00 | 0.00 | 0.00 | 12 | 1010.2 |
| 20260508214055 | 94 | 4 | 1.7 | 1.7 | 0.00 | 0.00 | 0.00 | 13 | 1010.2 |
| 20260508213552 | 95 | 297 | 4.3 | 5.2 | 0.00 | 0.00 | 0.00 | 12 | 1010.3 |
| 20260508213048 | 94 | 280 | 4.3 | 6.1 | 0.00 | 0.00 | 0.00 | 13 | 1010.5 |
| 20260508212545 | 93 | 57 | 2.6 | 2.6 | 0.00 | 0.00 | 0.00 | 12 | 1010.4 |
| 20260508212041 | 94 | 304 | 6.1 | 7.8 | 0.00 | 0.00 | 0.00 | 12 | 1010.4 |
| 20260508211537 | 93 | 207 | 3.5 | 4.3 | 0.00 | 0.00 | 0.00 | 12 | 1010.5 |
| 20260508211033 | 93 | 298 | 3.5 | 6.1 | 0.00 | 0.00 | 0.00 | 13 | 1010.6 |
| 20260508210530 | 93 | 295 | 3.5 | 5.2 | 0.00 | 0.00 | 0.00 | 13 | 1011.0 |
| 20260508210028 | 93 | 282 | 3.5 | 7.8 | 0.00 | 0.00 | 0.00 | 13 | 1010.6 |
| 20260508205524 | 93 | 321 | 5.2 | 6.1 | 0.00 | 0.00 | 0.00 | 13 | 1010.9 |
| 20260508205020 | 93 | 292 | 3.5 | 5.2 | 0.00 | 0.00 | 0.00 | 13 | 1010.9 |
| 20260508204518 | 93 | 295 | 5.2 | 8.7 | 0.00 | 0.00 | 0.00 | 13 | 1010.9 |
| 20260508204014 | 93 | 306 | 5.2 | 7.0 | 0.00 | 0.00 | 0.00 | 13 | 1011.0 |
| 20260508203510 | 92 | 314 | 2.6 | 2.6 | 0.00 | 0.00 | 0.00 | 14 | 1011.2 |
| 20260508203006 | 92 | 274 | 5.2 | 7.8 | 0.00 | 0.00 | 0.00 | 13 | 1011.3 |
| 20260508202503 | 92 | 303 | 4.3 | 7.8 | 0.00 | 0.00 | 0.00 | 13 | 1011.1 |
| 20260508202000 | 92 | 302 | 4.3 | 7.8 | 0.00 | 0.00 | 0.00 | 13 | 1011.3 |
| 20260508201456 | 92 | 283 | 1.7 | 1.7 | 0.00 | 0.00 | 0.00 | 14 | 1011.4 |
| 20260508200953 | 91 | 275 | 4.3 | 6.1 | 0.00 | 0.00 | 0.00 | 14 | 1011.5 |
| 20260508200450 | 91 | 281 | 3.5 | 4.3 | 0.00 | 0.00 | 0.00 | 13 | 1011.6 |
| 20260508195944 | 92 | 318 | 5.2 | 7.0 | 0.00 | 0.00 | 0.00 | 14 | 1011.5 |
| 20260508195442 | 91 | 255 | 2.6 | 2.6 | 0.00 | 0.00 | 0.00 | 14 | 1011.8 |
| 20260508194938 | 91 | 288 | 5.2 | 6.1 | 0.00 | 0.00 | 0.00 | 15 | 1011.7 |
| 20260508194436 | 92 | 251 | 6.1 | 7.8 | 0.00 | 0.00 | 0.00 | 14 | 1011.7 |
| 20260508193932 | 91 | 282 | 2.6 | 2.6 | 0.00 | 0.00 | 0.00 | 15 | 1011.7 |
| 20260508193430 | 91 | 279 | 4.3 | 7.0 | 0.00 | 0.00 | 0.00 | 15 | 1012.0 |
| 20260508192926 | 90 | 286 | 4.3 | 5.2 | 0.00 | 0.00 | 0.00 | 15 | 1012.0 |
| 20260508192423 | 91 | 319 | 6.1 | 7.0 | 0.00 | 0.00 | 0.00 | 15 | 1011.9 |
| 20260508191920 | 90 | 284 | 0.9 | 1.7 | 0.00 | 0.00 | 0.00 | 16 | 1011.9 |
| 20260508191417 | 90 | 319 | 4.3 | 5.2 | 0.00 | 0.00 | 0.00 | 15 | 1012.1 |
| 20260508190914 | 90 | 292 | 2.6 | 4.3 | 0.00 | 0.00 | 0.00 | 15 | 1012.1 |
| 20260508190411 | 91 | 314 | 6.1 | 7.0 | 0.00 | 0.00 | 0.00 | 15 | 1012.4 |
| 20260508185907 | 90 | 266 | 3.5 | 5.2 | 0.00 | 0.00 | 0.00 | 16 | 1012.4 |
| 20260508185405 | 89 | 289 | 2.6 | 2.6 | 0.00 | 0.00 | 0.00 | 16 | 1012.4 |
| 20260508184902 | 89 | 244 | 2.6 | 4.3 | 0.00 | 0.00 | 0.00 | 16 | 1012.4 |
| 20260508184359 | 89 | 270 | 2.6 | 2.6 | 0.00 | 0.00 | 0.00 | 17 | 1012.5 |
| 20260508183855 | 89 | 15 | 1.7 | 1.7 | 0.00 | 0.00 | 0.00 | 17 | 1012.8 |
| 20260508183352 | 87 | 46 | 0.9 | 0.9 | 0.00 | 0.00 | 0.00 | 17 | 1012.6 |
| 20260508182848 | 87 | 289 | 2.6 | 2.6 | 0.00 | 0.00 | 0.00 | 17 | 1012.8 |
| 20260508182345 | 87 | 226 | 2.6 | 1.7 | 0.00 | 0.00 | 0.00 | 17 | 1012.7 |
| 20260508181840 | 87 | 12 | 1.7 | 2.6 | 0.00 | 0.00 | 0.00 | 18 | 1013.0 |
| 20260508181337 | 88 | 256 | 3.5 | 4.3 | 0.00 | 0.00 | 0.00 | 17 | 1013.0 |
| 20260508180834 | 88 | 230 | 1.7 | 1.7 | 0.00 | 0.00 | 0.00 | 17 | 1013.1 |
| 20260508180331 | 87 | 37 | 0.9 | 1.7 | 0.00 | 0.00 | 0.00 | 18 | 1013.2 |
| 20260508175827 | 86 | 47 | 1.7 | 1.7 | 0.00 | 0.00 | 0.00 | 19 | 1013.4 |
| 20260508175324 | 86 | 266 | 0.9 | 0.9 | 0.00 | 0.00 | 0.00 | 19 | 1013.5 |
| 20260508174822 | 84 | 111 | 0.9 | 0.9 | 0.00 | 0.00 | 0.00 | 18 | 1013.4 |
| 20260508174319 | 84 | 108 | 0.9 | 0.9 | 0.00 | 0.00 | 0.00 | 19 | 1013.8 |
| 20260508173815 | 83 | 256 | 2.6 | 2.6 | 0.00 | 0.00 | 0.00 | 20 | 1013.6 |
| 20260508173313 | 83 | 161 | 2.6 | 2.6 | 0.00 | 0.00 | 0.00 | 19 | 1013.9 |
| 20260508172808 | 84 | 276 | 1.7 | 1.7 | 0.00 | 0.00 | 0.00 | 20 | 1013.9 |
| 20260508172307 | 83 | 307 | 1.7 | 1.7 | 0.00 | 0.00 | 0.00 | 20 | 1013.8 |
| 20260508171802 | 83 | 253 | 0.9 | 0.9 | 0.00 | 0.00 | 0.00 | 20 | 1014.0 |
| 20260508171258 | 83 | 306 | 1.7 | 1.7 | 0.00 | 0.00 | 0.00 | 20 | 1013.9 |
| 20260508170755 | 82 | 300 | 2.6 | 2.6 | 0.00 | 0.00 | 0.00 | 21 | 1013.8 |
| 20260508170253 | 82 | 241 | 0.0 | 0.9 | 0.00 | 0.00 | 0.00 | 20 | 1014.0 |
| 20260508165750 | 82 | 246 | 2.6 | 2.6 | 0.00 | 0.00 | 0.00 | 20 | 1014.0 |
| 20260508165247 | 83 | 51 | 1.7 | 1.7 | 0.00 | 0.00 | 0.00 | 20 | 1014.0 |
| 20260508164743 | 83 | 265 | 0.0 | 0.0 | 0.00 | 0.00 | 0.00 | 20 | 1013.9 |
| 20260508164240 | 84 | 173 | 0.9 | 0.9 | 0.00 | 0.00 | 0.00 | 20 | 1014.1 |
| 20260508163738 | 83 | 73 | 0.9 | 0.9 | 0.00 | 0.00 | 0.00 | 20 | 1014.2 |
| 20260508163236 | 82 | 11 | 0.0 | 0.0 | 0.00 | 0.00 | 0.00 | 22 | 1014.2 |